Weather in Vanzetur

Russia / Khanty-Mansi Autonomous Okrug — Yugra     63°32′11″N   64°48′49″E
temp.,
°C
wind,
m/s
gust,
m/s
humid.,
%
clouds,
%
prec.,
mm/h
press.,
hPa
HPBL,
m
11 may, tue
tue1123:00+17s515468 0.0 1021456
02:00+15ssw51454100 0.0 1020531
05:00+13ssw41265100 0.0 1021388
08:00+7nne6990100 2.1 1022430
11:00+7n4888100 5.4 1024536
14:00+9n4575100 0.0 1025824
17:00+10nne346098 0.0 1026967
20:00+9ese23665 0.0 102698
12 may, wed
wed1223:00+5sse238596 0.0 102545
02:00+5ssw258590 0.0 1025101
05:00+5wsw2282100 0.0 102438
08:00+9wnw3566100 0.0 1024292
11:00+12wsw3560100 0.0 1023772
14:00+11wsw3577100 0.3 1022520
17:00+11wsw2687100 0.4 1022375
20:00+12sw2288100 0.0 102032
13 may, thu
thu1323:00+10w2294100 0.0 102031
02:00+9nw259389 0.0 102075
05:00+9nnw5147935 0.0 1022566
08:00+10n6116154 0.0 1025842
11:00+12n464796 0.0 10261187
14:00+14n243653 0.0 10261413
17:00+16nnw23295 0.0 10261496
20:00+14ese22405 0.0 102521
14 may, fri
fri1423:00+10s37533 0.0 1023114
02:00+10ssw412607 0.0 1021251
05:00+12sw41570100 0.0 1018337
08:00+18wsw6155846 0.0 1016557
11:00+24w712383 0.0 10142048
14:00+26wnw711289 0.0 10132787
17:00+25wnw68336 0.0 10142922
20:00+21nw364398 0.0 1014175
15 may, sat
sat1523:00+16ene4965100 0.0 1015310
02:00+12ene477598 0.0 1015251
05:00+11ene3576100 0.1 1015235
08:00+14sse127283 0.3 1013330
11:00+17nw246450 1.1 1012798
14:00+18nnw136577 0.7 1011239
17:00+17wnw3777100 2.4 1011508
20:00+15nne2478100 0.8 1011206